| time (UTC) | temp C | wind direction | speed KPH | gust KPH | rain 1hr cm | rain 24hr cm | rain mn cm | humidity % | barometer mb |
| 20260505221305 | 12 | 146 | 0.0 | 0.0 | 0.00 | 0.71 | 0.00 | 91 | 1006.2 |
| 20260505220304 | 12 | 146 | 0.0 | 0.0 | 0.03 | 0.79 | 0.00 | 91 | 1006.2 |
| 20260505215308 | 12 | 146 | 0.0 | 0.0 | 0.03 | 0.84 | 0.79 | 91 | 1006.3 |
| 20260505214305 | 12 | 146 | 0.0 | 0.0 | 0.03 | 0.84 | 0.79 | 91 | 1006.4 |
| 20260505211304 | 13 | 146 | 0.0 | 0.0 | 0.05 | 0.84 | 0.79 | 92 | 1006.5 |
| 20260505204305 | 13 | 146 | 0.0 | 0.0 | 0.10 | 0.79 | 0.79 | 92 | 1006.7 |
| 20260505203301 | 13 | 146 | 0.0 | 0.0 | 0.08 | 0.79 | 0.76 | 92 | 1006.8 |
| 20260505201306 | 13 | 146 | 0.0 | 0.0 | 0.10 | 0.81 | 0.76 | 92 | 1006.8 |
| 20260505195301 | 13 | 146 | 0.0 | 0.0 | 0.05 | 0.74 | 0.71 | 92 | 1006.6 |
| 20260505194306 | 13 | 146 | 0.0 | 0.0 | 0.05 | 0.74 | 0.69 | 92 | 1006.7 |
| 20260505193305 | 13 | 146 | 0.0 | 0.0 | 0.05 | 0.74 | 0.69 | 92 | 1006.5 |
| 20260505191301 | 13 | 146 | 0.0 | 0.0 | 0.05 | 0.74 | 0.66 | 92 | 1006.6 |
| 20260505190302 | 13 | 146 | 0.0 | 0.0 | 0.08 | 0.74 | 0.66 | 93 | 1006.5 |
| 20260505185304 | 14 | 146 | 0.0 | 0.0 | 0.05 | 0.66 | 0.64 | 92 | 1006.6 |
| 20260505184303 | 14 | 146 | 0.0 | 0.0 | 0.08 | 0.66 | 0.64 | 92 | 1006.6 |
| 20260505183302 | 14 | 146 | 0.0 | 0.0 | 0.05 | 0.66 | 0.61 | 93 | 1006.6 |
| 20260505182321 | 14 | 146 | 0.0 | 0.0 | 0.05 | 0.66 | 0.61 | 93 | 1006.6 |
| 20260505181301 | 14 | 146 | 0.0 | 0.0 | 0.05 | 0.66 | 0.61 | 93 | 1006.6 |
| 20260505180303 | 14 | 146 | 0.0 | 0.0 | 0.05 | 0.66 | 0.58 | 93 | 1006.6 |
| 20260505175305 | 14 | 146 | 0.0 | 0.0 | 0.05 | 0.61 | 0.58 | 93 | 1006.6 |
| 20260505174301 | 14 | 146 | 0.0 | 0.0 | 0.05 | 0.61 | 0.56 | 93 | 1006.6 |
| 20260505173300 | 14 | 146 | 0.0 | 0.0 | 0.05 | 0.61 | 0.56 | 93 | 1006.6 |
| 20260505172305 | 14 | 146 | 0.0 | 0.0 | 0.08 | 0.61 | 0.53 | 93 | 1006.6 |
| 20260505171301 | 14 | 146 | 0.0 | 0.0 | 0.10 | 0.61 | 0.53 | 93 | 1006.7 |
| 20260505170305 | 14 | 146 | 0.0 | 0.0 | 0.15 | 0.61 | 0.51 | 93 | 1006.8 |
| 20260505165306 | 14 | 146 | 0.0 | 0.0 | 0.15 | 0.46 | 0.51 | 93 | 1006.8 |
| 20260505164301 | 14 | 146 | 0.0 | 0.0 | 0.18 | 0.46 | 0.51 | 93 | 1006.9 |
| 20260505163302 | 14 | 146 | 0.0 | 0.0 | 0.20 | 0.46 | 0.51 | 93 | 1006.9 |
| 20260505162301 | 14 | 146 | 1.6 | 3.2 | 0.20 | 0.46 | 0.48 | 93 | 1007.0 |
| 20260505161302 | 15 | 146 | 0.0 | 1.6 | 0.18 | 0.46 | 0.43 | 93 | 1007.0 |
| 20260505160303 | 15 | 146 | 0.0 | 4.8 | 0.15 | 0.46 | 0.38 | 92 | 1007.0 |
| 20260505153304 | 15 | 229 | 1.6 | 3.2 | 0.13 | 0.33 | 0.30 | 91 | 1007.0 |
| 20260505150305 | 16 | 264 | 0.0 | 3.2 | 0.05 | 0.36 | 0.23 | 90 | 1006.9 |
| 20260505130304 | 18 | 86 | 0.0 | 4.8 | 0.00 | 0.89 | 0.18 | 70 | 1007.2 |
| 20260505124301 | 19 | 86 | 1.6 | 20.9 | 0.00 | 0.89 | 0.18 | 71 | 1007.4 |
| 20260505123307 | 19 | 30 | 4.8 | 9.7 | 0.00 | 0.89 | 0.18 | 64 | 1007.4 |
| 20260505122301 | 20 | 148 | 3.2 | 6.4 | 0.00 | 0.89 | 0.18 | 70 | 1007.5 |
| 20260505121304 | 19 | 152 | 1.6 | 4.8 | 0.00 | 0.89 | 0.18 | 71 | 1007.6 |
| 20260505120304 | 19 | 146 | 0.0 | 3.2 | 0.00 | 0.89 | 0.18 | 72 | 1007.8 |
| 20260505115305 | 18 | 142 | 0.0 | 4.8 | 0.00 | 0.89 | 0.18 | 66 | 1007.8 |
| 20260505114304 | 18 | 140 | 0.0 | 6.4 | 0.00 | 0.89 | 0.18 | 68 | 1008.0 |
| 20260505113305 | 18 | 66 | 0.0 | 6.4 | 0.00 | 0.89 | 0.18 | 72 | 1008.1 |
| 20260505112301 | 18 | 76 | 0.0 | 6.4 | 0.00 | 0.89 | 0.18 | 64 | 1008.4 |
| 20260505111304 | 18 | 74 | 0.0 | 4.8 | 0.00 | 0.89 | 0.18 | 72 | 1008.3 |
| 20260505100302 | 16 | 319 | 0.0 | 6.4 | 0.00 | 0.89 | 0.18 | 84 | 1009.1 |
| 20260505094305 | 16 | 319 | 0.0 | 4.8 | 0.03 | 0.89 | 0.18 | 85 | 1009.1 |
| 20260505091305 | 16 | 319 | 0.0 | 4.8 | 0.03 | 0.89 | 0.18 | 90 | 1009.2 |
| 20260505090307 | 15 | 319 | 1.6 | 6.4 | 0.03 | 0.89 | 0.18 | 91 | 1009.3 |
| 20260505085307 | 15 | 45 | 0.0 | 4.8 | 0.00 | 0.86 | 0.15 | 91 | 1009.3 |
| 20260505084304 | 15 | 47 | 0.0 | 0.0 | 0.00 | 0.86 | 0.15 | 92 | 1009.4 |
| 20260505083304 | 15 | 47 | 0.0 | 0.0 | 0.00 | 0.86 | 0.15 | 93 | 1009.4 |
| 20260505082306 | 14 | 47 | 0.0 | 0.0 | 0.00 | 0.86 | 0.15 | 93 | 1009.5 |
| 20260505081302 | 14 | 47 | 0.0 | 6.4 | 0.00 | 0.86 | 0.15 | 93 | 1009.6 |
| 20260505080303 | 14 | 44 | 1.6 | 4.8 | 0.00 | 0.86 | 0.15 | 92 | 1009.5 |
| 20260505074304 | 13 | 35 | 0.0 | 0.0 | 0.00 | 0.86 | 0.15 | 90 | 1009.7 |
| 20260505073302 | 13 | 35 | 0.0 | 0.0 | 0.00 | 0.86 | 0.15 | 90 | 1009.7 |
| 20260505072305 | 12 | 35 | 0.0 | 1.6 | 0.00 | 0.86 | 0.15 | 89 | 1009.7 |
| 20260505071302 | 12 | 34 | 0.0 | 3.2 | 0.00 | 0.86 | 0.15 | 89 | 1009.8 |
| 20260505070303 | 12 | 71 | 0.0 | 0.0 | 0.00 | 0.86 | 0.15 | 89 | 1009.8 |
| 20260505064304 | 12 | 71 | 0.0 | 0.0 | 0.00 | 0.86 | 0.15 | 89 | 1009.8 |
| 20260505063303 | 12 | 71 | 0.0 | 0.0 | 0.00 | 0.86 | 0.15 | 89 | 1009.8 |
| 20260505062301 | 11 | 71 | 0.0 | 0.0 | 0.00 | 0.86 | 0.15 | 89 | 1009.8 |
| 20260505061303 | 11 | 71 | 0.0 | 0.0 | 0.00 | 0.86 | 0.15 | 89 | 1009.9 |
| 20260505060316 | 11 | 71 | 0.0 | 0.0 | 0.00 | 0.86 | 0.15 | 89 | 1010.0 |
| 20260505055303 | 11 | 71 | 0.0 | 0.0 | 0.00 | 0.86 | 0.15 | 89 | 1009.9 |
| 20260505054300 | 11 | 71 | 0.0 | 0.0 | 0.00 | 0.86 | 0.15 | 90 | 1009.9 |
| 20260505053259 | 11 | 71 | 0.0 | 0.0 | 0.00 | 0.86 | 0.15 | 89 | 1009.9 |
| 20260505052301 | 11 | 71 | 0.0 | 0.0 | 0.00 | 0.86 | 0.15 | 90 | 1009.9 |
| 20260505051308 | 11 | 71 | 0.0 | 0.0 | 0.00 | 0.86 | 0.15 | 90 | 1009.9 |
| 20260505040301 | 11 | 71 | 0.0 | 0.0 | 0.00 | 0.86 | 0.15 | 90 | 1010.2 |
| 20260505035304 | 11 | 71 | 0.0 | 0.0 | 0.00 | 0.86 | 0.15 | 90 | 1010.2 |
| 20260505034258 | 11 | 71 | 0.0 | 0.0 | 0.00 | 0.86 | 0.15 | 90 | 1010.3 |
| 20260505033259 | 11 | 71 | 0.0 | 0.0 | 0.00 | 0.86 | 0.15 | 90 | 1010.4 |
| 20260505031257 | 11 | 71 | 0.0 | 0.0 | 0.00 | 0.86 | 0.15 | 90 | 1010.6 |
| 20260505030256 | 11 | 71 | 0.0 | 0.0 | 0.00 | 0.86 | 0.15 | 90 | 1010.6 |
| 20260505025254 | 11 | 71 | 0.0 | 0.0 | 0.00 | 0.86 | 0.15 | 90 | 1010.8 |
| 20260505023300 | 11 | 71 | 0.0 | 0.0 | 0.00 | 0.86 | 0.15 | 91 | 1010.9 |
| 20260505015256 | 11 | 71 | 0.0 | 0.0 | 0.00 | 0.86 | 0.15 | 91 | 1011.1 |
| 20260505014256 | 11 | 71 | 0.0 | 0.0 | 0.00 | 0.86 | 0.15 | 91 | 1011.2 |
| 20260505013254 | 11 | 71 | 0.0 | 0.0 | 0.00 | 0.86 | 0.15 | 91 | 1011.3 |
| 20260505012255 | 11 | 71 | 0.0 | 0.0 | 0.00 | 0.86 | 0.15 | 91 | 1011.3 |
| 20260505010255 | 11 | 71 | 0.0 | 0.0 | 0.00 | 0.86 | 0.15 | 91 | 1011.4 |
| 20260505005256 | 11 | 71 | 0.0 | 0.0 | 0.00 | 0.86 | 0.15 | 91 | 1011.5 |
| 20260505003253 | 12 | 71 | 0.0 | 0.0 | 0.00 | 0.86 | 0.15 | 91 | 1011.8 |
| 20260505000254 | 12 | 71 | 0.0 | 0.0 | 0.00 | 0.86 | 0.15 | 91 | 1012.2 |
| 20260504235253 | 12 | 71 | 0.0 | 3.2 | 0.03 | 0.84 | 0.15 | 91 | 1012.3 |
| 20260504233253 | 12 | 71 | 0.0 | 0.0 | 0.05 | 0.84 | 0.15 | 91 | 1012.5 |
| 20260504232252 | 12 | 71 | 1.6 | 4.8 | 0.05 | 0.84 | 0.15 | 91 | 1012.5 |
| 20260504231250 | 12 | 71 | 3.2 | 6.4 | 0.08 | 0.84 | 0.15 | 91 | 1012.8 |
| 20260504230254 | 12 | 74 | 3.2 | 6.4 | 0.15 | 0.84 | 0.15 | 91 | 1012.8 |
| 20260504225251 | 12 | 74 | 0.0 | 8.0 | 0.20 | 0.71 | 0.15 | 91 | 1012.9 |
| 20260504224252 | 12 | 78 | 3.2 | 6.4 | 0.18 | 0.71 | 0.13 | 92 | 1013.1 |
| 20260504223251 | 12 | 159 | 1.6 | 6.4 | 0.18 | 0.71 | 0.13 | 92 | 1013.3 |